Погода Куминская

Погода Куминская : погода сейчас, прогноз погоды и архив. Всё, что Вы хотите узнать о погоде Куминская!

Поиск расширенной информации на нашем сайте:

Полезная информация: погода в петропавловске-камчатском

Другие новости

Новости СМИ2

Главная страница сайта

Новости сайта

03.07.2017

Напоминаем, что на нашем специализированном сайте Метеоцентр.Азия вы можете получить высокодетализированные автоматические прогнозы погоды по пунктам России, СНГ и мира в авиационном формате (включающие направление и скорость ветра, видимость, явления погоды, количество и форму облачности, нижнюю и верхнюю границу облачности).

Рекомендуем: сауны города екатеринбурга

Погода Куминская - сегодня

Время (UTC), дата Ветер
(°,м/с) 
Видим.   Явления Облачность Т
(°С)
Тd
(°С)
f(%) Тe
(°С)
Pmin
(гПа)
dP
(гПа)
Po
(мм)
O2
(г/м3)
Тmin Tmax R s Состояние
почвы
18 24.05.18 тихо ()   50000 м  местами туман поземный{гроза}  6/0 средняя, верхняя 
[Ac trans|Ci fib]
+5.7 +5.3 97 +6  1011.5  1.4  751  296           
21 24.05.18 тихо ()   50000 м  туман поземный{гроза}  4/0 верхняя 
[Ci fib]
+1.5 +1.3 99 +2  1012.5  0.8  752  301           
00 25.05.18 тихо ()   10 км    9/0 средняя, верхняя 
[Ac trans|Ci fib]
+0.6 +0.5 99 +1  1013.6  1.1  752  302           
03 25.05.18 050 (СВ) 10 км    10/8 600 м кучево-дожд., средняя, верхняя 
[Cb cap|Ac trans|Ci fib]
+7.8 +1.4 64 +9  1013.4  0.1  753  295  +0.1        влажная 
06 25.05.18 230 (ЮЗ) н/о    н/о 
+11.5 -2.6 37 +13  1013.2  0.1  753  291           
09 25.05.18 330 (СЗ) 10 км  слаб. ливневой дождь  10/10 300 м кучево-дожд. 
[Cb cap]
+10.8 +0.4 49 +10  1013.2  752  292           
12 25.05.18 020 (С) н/о    н/о 
+11.7 -0.5 43 +12  1013.2  753  291           
18 25.05.18 010 (С) 50000 м  {ливн. осадки}  10/8 300 м кучево-дожд., средняя, верхняя 
[Cb cap|Ac trans|Ci fib]
+6.5 +1.5 70 +7  1015.5  754  297           
21 25.05.18 020 (С) 50000 м    8/4 300 м кучево-дожд., средняя, верхняя 
[Cb cap|Ac trans|Ci fib]
+4.7 -0.2 71 +4  1016.3  0.7  755  299           
00 26.05.18 010 (С) 10 км    10/3 300 м кучево-дожд., средняя, верхняя 
[Cb cap|Ac trans|Ci fib]
+3.1 -2.1 69 +2  1016.9  0.6  755  301           
03 26.05.18 030 (СВ) 4-11{11}  10 км    6/0 верхняя 
[Ci fib]
+4.9 -3.8 53 +3  1018.6  1.8  756  300  +2.8    0.0    влажная 
06 26.05.18 360 (С) 4-10{11}  н/о    н/о 
+7.8 -5.8 38 +7  1019.3  0.7  757  297           
09 26.05.18 360 (С) 3{10}  10 км    10/8 300 м кучево-дожд., верхняя 
[Cb cap|Ci fib]
+7.8 -6.2 36 +7  1019.1  0.1  757  297           
12 26.05.18 360 (С) н/о    н/о 
+7.3 -6.2 38 +7  1019.6  0.4  757  298           
15 26.05.18 340 (С) 10 км    6/6 300 м кучево-дожд. 
[Cb cap]
+6.8 -6.3 39 +6  1019.7  0.1  757  298    +8.4       
18 26.05.18 тихо ()   50000 м    ясно 
-1.5 -4.3 81 -2  1019.6  -0.4  757  307           
21 26.05.18 тихо ()   50000 м    ясно 
-3.3 -4.8 89 -3  1018.6  -1  756  309           
00 27.05.18 200 (Ю) 10 км    ясно 
-2.7 -4.1 90 -2  1017.1  -1.5  755  308           
03 27.05.18 230 (ЮЗ) 10 км    3/0 верхняя 
[Ci fib]
+8.9 -4.2 39 +9  1014.3  -2.4  753  294  -4        влажная 
06 27.05.18 210 (ЮЗ) 3{10}  н/о    н/о 
+13.8 -2.4 32 +14  1010.4  -3.6  751  288           
12 27.05.18 250 (З) н/о    н/о 
+15.9 +3.8 44 +16  1005.2  -2  747  284           
15 27.05.18 010 (С) 2{10}  10 км  слаб. ливневой дождь  10/9 300 м кучево-дожд. 
[Cb cap]
+12 +7.7 75 +12  1003.7  -1.7  745  286    +16.6  0.0     
18 27.05.18 тихо ()   10 км  слаб. ливневой дождь  10/10 300 м кучево-дожд. 
[Cb cap]
+8.9 +8.3 96 +9  1001.2  -2.5  744  289           
21 27.05.18 340 (С) 9000 м  слаб. ливневой дождь  10/10 300 м кучево-дожд. 
[Cb cap]
+8.1 +7.7 97 +8  998.5  -2.7  742  289           
00 28.05.18 340 (С) 10 км  слаб. ливневой дождь  10/10 300 м кучево-дожд. 
[Cb cap]
+5.3 +4.3 93 +4  1000.3  1.7  743  293           
Время (UTC), дата Ветер
(°,м/с) 
Видим.   Явления Облачность Т
(°С)
Тd
(°С)
f(%) Тe
(°С)
Pmin
(гПа)
dP
(гПа)
Po
(мм)
O2
(г/м3)
Тmin Tmax R s Состояние
почвы

Для получения пояснительной информации подведите курсор к названию столбца.

ПОГОДА Куминская - архив

Всё, что Вы хотите узнать о погоде Куминская - удобно и подробно!

Выберите нужную дату (начиная с 1 января 2015* года) и нажмите кнопку "Найти".
Будут отображены архивные сводки погоды по пункту Куминская, начиная с указанной даты.


Отображать данные в формате CSV (для использования в таблицах Excel)


Внимание! Наш архив погоды предназначен исключительно для личного некоммерческого использования в познавательных целях. Если Вам необходимы официальные справки о состоянии погоды (для производственных, юридических, коммерческих и т.п. целей), обращайтесь в органы Росгидромета.

*Примечание: данная дата относится к архиву по метеостанциям СССР (Россия, СНГ, Балтия).
Архив по метеостанциям Зарубежной Европы и Азии (кроме Китая) хранится 10 дней, по другим регионам земного шара (Китай, Африка, Америка, Австралия, Океания) - 1 день.

Куминская - район местоположения метеостанции


Название, широта, долгота, высота метеостанции:
Куминская 58.8°ш. 66°д. 64 м над ур. моря [Российская Федерация]

Дополнительная информация

В oтличие oт бoльшинства пoгoдных сайтoв мы публикуем пoдрoбную метеoинфoрмацию в детальнoм прoфессиoнальнoм фoрмате.

Характеристики температуры и влажнoсти вoздуха измеряются на высoте 2 м в тени вдали oт зданий и деревьев.
Скoрoсть ветра измеряется на высoте 10 м (на урoвне рoста челoвека скoрoсть ветра ниже в 1.5-2 раза). Если метеoстанция нахoдится в гoрoде или в лесу, тo скoрoсть ветра занижена на 2-4 м/с пo сравнению с oткрытым местoм. Скoрoсть ветра над акватoриями крупных рек и oзёр, а также на вершинах хoлмoв на 2-5 м/с выше, чем в oбычных услoвиях.
Атмoсфернoе давление в разных тoчках местнoсти мoжет значительнo oтличаться oт давления на метеoстанции, в зависимoсти oт услoвий рельефа (при пoдъёме на 10 м давление пoнижается примернo на 1 мм рт.ст.).